MST,Max TemperatureF,Mean TemperatureF,Min TemperatureF,Max Dew PointF,MeanDew PointF,Min DewpointF,Max Humidity, Mean Humidity, Min Humidity, Max Sea Level PressureIn, Mean Sea Level PressureIn, Min Sea Level PressureIn, Max VisibilityMiles, Mean VisibilityMiles, Min VisibilityMiles, Max Wind SpeedMPH, Mean Wind SpeedMPH, Max Gust SpeedMPH,PrecipitationIn, CloudCover, Events, WindDirDegrees
2013-2-1,51,40,30,29,27,24,76,58,30,30.34,30.27,30.22,10,9,2,5,1,,0.00,0,,320
2013-2-2,50,40,30,30,28,26,82,60,33,30.44,30.37,30.31,10,9,5,6,1,,0.00,0,,13
2013-2-3,46,41,35,31,29,28,76,63,37,30.30,30.16,30.07,10,10,5,6,1,,0.00,3,,45
2013-2-4,50,40,30,31,28,26,86,66,37,30.19,30.13,30.07,10,9,2,7,1,,0.00,0,,338
2013-2-5,53,42,32,31,28,26,82,59,24,30.15,30.04,29.92,10,9,6,7,1,,0.00,0,,11
2013-2-6,57,47,37,31,29,26,70,52,18,30.05,29.93,29.86,10,10,4,7,1,,0.00,1,,17
2013-2-7,54,44,34,29,24,21,73,45,20,30.17,30.04,29.88,10,10,8,9,2,,0.00,1,,22
2013-2-8,55,46,35,29,19,3,60,36,6,29.91,29.68,29.55,10,10,6,21,9,36,0.00,1,,195
2013-2-9,45,39,33,27,21,15,75,51,18,29.84,29.69,29.60,10,9,2,14,5,24,0.00,6,Snow,272
2013-2-10,39,34,28,28,25,19,93,77,41,29.96,29.87,29.81,10,6,0,12,7,24,0.08,7,Fog-Snow,241
2013-2-11,39,30,21,23,19,15,78,60,31,30.15,30.07,29.98,10,10,10,5,2,,0.00,1,,122
2013-2-12,41,32,23,19,13,7,61,44,20,30.32,30.24,30.17,10,9,2,9,3,,0.00,0,,128
2013-2-13,46,36,26,24,20,17,74,52,21,30.31,30.24,30.18,10,9,5,6,1,,0.00,0,,110
2013-2-14,54,41,28,25,23,20,75,51,19,30.28,30.22,30.15,10,9,5,6,2,,0.00,0,,62
2013-2-15,54,42,30,22,19,15,59,40,13,30.43,30.36,30.29,10,10,7,7,2,,0.00,0,,97
2013-2-16,55,42,28,21,19,17,61,41,16,30.43,30.29,30.07,10,10,6,6,2,,0.00,0,,123
2013-2-17,61,47,33,21,16,3,56,33,4,30.06,29.86,29.68,10,10,8,14,3,29,0.00,0,,278
2013-2-18,50,42,33,18,7,-1,38,24,5,30.11,30.02,29.92,10,10,3,12,6,20,0.00,0,,358
2013-2-19,50,39,28,15,11,6,49,30,12,29.97,29.77,29.53,10,9,2,7,2,,0.00,0,,283
2013-2-20,46,42,39,27,22,12,60,42,22,29.66,29.54,29.46,10,10,10,14,7,18,0.00,5,,209
2013-2-21,48,41,34,27,20,14,70,43,16,29.93,29.79,29.68,10,10,10,13,5,22,0.00,3,,274
2013-2-22,46,38,30,14,6,2,46,26,9,30.09,30.02,29.93,10,10,10,13,6,18,0.00,0,,295
2013-2-23,51,40,30,27,14,7,67,39,21,30.06,29.90,29.71,10,10,4,23,5,39,0.00,2,Snow,307
2013-2-24,45,36,28,12,7,4,38,29,11,30.11,29.97,29.88,10,10,10,21,9,30,0.00,3,,312
2013-2-25,48,36,25,9,7,5,47,28,8,30.22,30.08,29.94,10,10,5,7,4,,0.00,0,,24
2013-2-26,48,41,33,12,2,-11,39,21,4,30.22,30.05,29.94,10,10,10,23,8,31,0.00,0,,321
2013-2-27,45,35,25,7,4,1,45,25,7,30.36,30.30,30.22,10,9,4,6,3,,0.00,0,,336
2013-2-28,52,39,26,7,5,2,39,24,6,30.45,30.39,30.33,10,10,5,7,2,,0.00,0,,58